NINGXIA-1 6 (49018 NORAD) Tracking and Keplerian Element Data

This shows tracking and keplerian element data for the satellite.

Feedback or suggestion? Click here.




ElementValue
Catalog49018
NameNINGXIA-1 6
Epoch Orbit288
Epoch Day211.04820819
Epoch Year2021
RAAN359.0332
Inclination45.0053
Eccentricity0.0008501
Argument of Perigee337.3588
Mean Anonmoly22.6776
Mean Motion14.08048833
Decay Rate-7.07E-06
L11 49018U 21064A 21211.04820819 -.00000707 00000-0 -33540-3 0 9998
L22 49018 45.0053 359.0332 0008501 337.3588 22.6776 14.08048833 2884

Live tracking and technical data element details for NINGXIA-1 6 (NORAD 49018). NINGXIA-1 6 can be tracked NOW for your location showing map with azimuth and elevation plus other details from your city location.

Track the satellite on the map from your city or location and see movement details for azimuth, elevation, latitude, longitude, range, height, and movement on the map or in text.







IsCatalogInMostPopularTable: catalog: 49018, numindb: 1
Update: records affected: 1



GetName: 49018 NINGXIA-1 6

Hit Count: updated at: Sat, 31 Jul 2021 14:57:29 GMT